Content
SEND FEEDBACK

Daily
Averages
Monthly
Summary
Turkmenistan

ASHGABAT, TURKMENISTAN


Home > Asia > Turkmenistan
Elevation: 775 feet     Latitude: 37 58N     Longitude: 058 20E

WEATHER
 
SELECT A DAY
Number of Records: 182,466;   Date Range: 3/15/97 - 11/24/14
 
SHARE

PRINT THIS DATA

[ ← Previous Day ]
WEATHER ALMANAC - APRIL 17, 2013
[ Next Day → ]
[ °C ]   °F
Weather ElementAverageHighLow
Temperature61.8 °F73.4 °F (3:00 pm)50 °F (6:00 am)
Dewpoint35.9 °F40 °F (5:00 pm)32 °F (1:00 am)
Humidity36.2 %62 % (7:00 am)19 % (2:00 pm)
Barometer29.99 in30.06 in (1:00 am)29.91 in (5:00 pm)
Wind Speed7.4 mph17.9 mph (8:00 pm)
Weather ElementAverage
Visibility6.1 mi
Wind DirectionENE (83.2 °)

Weather ElementTotal
Precipitation---
Heating Degree Days3.3 (Base 65)
Growing Degree Days11.7 (Base 50)
Averaged from 31 records on April 17, 2013
WEATHER CONDITIONS BREAKOUT
WIND DIRECTION BREAKOUT
WEATHER BY HOUR - APRIL 17, 2013
[ °C ]   °F
Local TimeTemperatureDewpointHumidityBarometerVisibilityWind DirectionWind SpeedGust SpeedPrecipitationEventsConditions
1:00 AM59.0 °F32.0 °F36 %30.06 in6.2 miEast (90°)6.7 mphClear
2:00 AM58.0 °F35.0 °F30 %30.06 in6.0 miEast (80°)4.5 mph
2:00 AM55.4 °F33.8 °F44 %30.04 in6.2 miEast (80°)4.5 mphClear
3:00 AM55.4 °F33.8 °F44 %30.04 in6.2 miENE (70°)4.5 mphClear
4:00 AM53.6 °F33.8 °F47 %30.04 in6.2 miNE (50°)4.5 mphClear
5:00 AM54.0 °F33.0 °F33 %30.04 in6.0 miESE (110°)4.5 mph
5:00 AM51.8 °F33.8 °F50 %30.01 in6.2 miESE (110°)4.5 mphClear
6:00 AM50.0 °F35.6 °F58 %30.01 in6.2 miCalmClear
7:00 AM50.0 °F37.4 °F62 %30.01 in6.2 miCalmClear
8:00 AM53.0 °F36.0 °F40 %30.04 in6.0 miNE (40°)4.5 mphScattered Clouds
8:00 AM55.4 °F35.6 °F47 %30.01 in6.2 miNE (40°)6.7 mphPartly Cloudy
9:00 AM57.2 °F35.6 °F44 %30.01 in6.2 miEast (80°)6.7 mphMostly Cloudy
10:00 AM59.0 °F35.6 °F42 %29.98 in6.2 miEast (90°)6.7 mphMostly Cloudy
11:00 AM62.0 °F38.0 °F29 %29.99 in6.0 miEast (100°)8.9 mphClear
11:00 AM62.6 °F35.6 °F37 %29.98 in6.2 miEast (90°)6.7 mphScattered Clouds
12:00 PM66.2 °F33.8 °F30 %29.98 in6.2 miEast (100°)6.7 mphScattered Clouds
1:00 PM68.0 °F35.6 °F30 %29.95 in6.2 miESE (120°)8.9 mphScattered Clouds
2:00 PM71.0 °F38.0 °F19 %29.94 in6.0 miSE (130°)11.2 mphScattered Clouds
2:00 PM71.6 °F37.4 °F29 %29.95 in6.2 miESE (110°)8.9 mphPartly Cloudy
3:00 PM73.4 °F37.4 °F27 %29.95 in6.2 miSE (130°)8.9 mphScattered Clouds
4:00 PM73.4 °F39.2 °F29 %29.92 in6.2 miSSE (150°)4.5 mphMostly Cloudy
5:00 PM72.0 °F40.0 °F21 %29.91 in6.0 miEast (90°)4.5 mphScattered Clouds
5:00 PM73.4 °F39.2 °F29 %29.92 in6.2 miESE (110°)4.5 mphMostly Cloudy
6:00 PM73.4 °F39.2 °F29 %29.92 in6.2 miESE (120°)8.9 mphMostly Cloudy
7:00 PM69.8 °F37.4 °F31 %29.92 in6.2 miENE (60°)13.4 mphMostly Cloudy
8:00 PM66.0 °F36.0 °F22 %29.96 in6.0 miNE (50°)17.9 mphPartly Cloudy
8:00 PM64.4 °F35.6 °F34 %29.95 in6.2 miENE (60°)15.7 mphMostly Cloudy
9:00 PM62.6 °F33.8 °F34 %29.98 in6.2 miENE (70°)11.2 mphMostly Cloudy
10:00 PM59.0 °F35.6 °F42 %30.01 in6.2 miENE (70°)11.2 mphMostly Cloudy
11:00 PM58.0 °F35.0 °F30 %30.02 in6.0 miEast (90°)11.2 mphOvercast
11:00 PM57.2 °F35.6 °F44 %30.01 in6.2 miEast (90°)8.9 mphOvercast
Hourly data recorded from UTAA, located miles away from Ashgabat, Turkmenistan







STORIES FROM OUR PARTNERS